EW1390 Weather Reports


Display with metric or nautical units.
time (UTC)temp
F
wind
direction
speed
MPH
gust
MPH
rain 1hr
in
rain 24hr
in
rain mn
in
humidity
%
barometer
mb
20260903164541 61 219 0.0 2.0 0.00 0.00 0.00 73 1007.8
20260903163047 58 219 0.0 1.0 0.00 0.00 0.00 83 1007.7
20260903161532 55 219 0.0 0.0 0.00 0.00 0.00 87 1007.8
20260903160032 54 219 0.0 0.0 0.00 0.00 0.00 89 1008.0
20260903154531 52 219 0.0 0.0 0.00 0.00 0.00 89 1008.1
20260903153029 51 219 0.0 0.0 0.00 0.00 0.00 89 1008.2
20260903151530 50 219 0.0 0.0 0.00 0.00 0.00 88 1008.2
20260903150037 49 219 0.0 0.0 0.00 0.00 0.00 88 1008.1
20260903144528 49 219 0.0 0.0 0.00 0.00 0.00 88 1008.1
20260903143035 48 219 0.0 0.0 0.00 0.00 0.00 87 1008.0
20260903141526 48 219 0.0 0.0 0.00 0.00 0.00 87 1007.9
20260903140026 48 219 0.0 0.0 0.00 0.00 0.00 87 1007.8
20260903134524 48 219 0.0 0.0 0.00 0.00 0.00 87 1007.8
20260903133027 48 219 0.0 0.0 0.00 0.00 0.00 86 1007.8
20260903131523 48 219 0.0 0.0 0.00 0.00 0.00 86 1007.8
20260903130022 48 219 0.0 0.0 0.00 0.00 0.00 86 1007.8
20260903124524 48 219 0.0 0.0 0.00 0.00 0.00 86 1007.8
20260903123027 49 219 0.0 0.0 0.00 0.00 0.00 85 1007.9
20260903121518 49 219 0.0 0.0 0.00 0.00 0.00 85 1007.8
20260903120016 49 219 0.0 0.0 0.00 0.00 0.00 85 1008.0
20260903114514 49 219 0.0 0.0 0.00 0.00 0.00 84 1008.0
20260903113014 49 219 0.0 0.0 0.00 0.00 0.00 84 1008.1
20260903111511 50 219 0.0 0.0 0.00 0.00 0.00 84 1008.2
20260903110009 50 219 0.0 0.0 0.00 0.00 0.00 83 1008.3
20260903104508 50 219 0.0 0.0 0.00 0.00 0.00 83 1008.3
20260903103006 50 219 0.0 0.0 0.00 0.00 0.00 82 1008.3
20260903101504 51 219 0.0 0.0 0.00 0.00 0.00 82 1008.4
20260903100004 51 219 0.0 0.0 0.00 0.00 0.00 82 1008.5
20260903094603 51 219 0.0 0.0 0.00 0.00 0.00 81 1008.5
20260903093126 51 219 0.0 0.0 0.00 0.00 0.00 81 1008.6
20260903091557 51 219 0.0 0.0 0.00 0.00 0.00 80 1008.6
20260903090054 52 219 0.0 0.0 0.00 0.00 0.00 80 1008.7
20260903084552 52 219 0.0 0.0 0.00 0.00 0.00 79 1008.7
20260903083056 53 219 0.0 0.0 0.00 0.00 0.00 79 1008.8
20260903081552 53 219 0.0 0.0 0.00 0.00 0.00 78 1008.9
20260903080046 54 219 0.0 0.0 0.00 0.00 0.00 78 1008.9
20260903074546 54 219 0.0 0.0 0.00 0.00 0.00 77 1008.8
20260903073043 54 219 0.0 0.0 0.00 0.00 0.00 77 1008.7
20260903071554 55 219 0.0 0.0 0.00 0.00 0.00 76 1008.6
20260903070056 55 219 0.0 0.0 0.00 0.00 0.00 75 1008.7
20260903064537 56 219 0.0 0.0 0.00 0.00 0.00 74 1008.7
20260903063040 56 219 0.0 0.0 0.00 0.00 0.00 73 1008.7
20260903061537 57 219 0.0 0.0 0.00 0.00 0.00 73 1008.8
20260903060039 57 219 0.0 0.0 0.00 0.00 0.00 72 1008.7
20260903054543 58 219 0.0 1.0 0.00 0.00 0.00 71 1008.7
20260903053037 58 219 0.0 0.0 0.00 0.00 0.00 70 1008.9
20260903051534 59 219 0.0 2.0 0.00 0.00 0.00 70 1008.8
20260903050040 59 219 0.0 2.0 0.00 0.00 0.00 69 1008.9
20260903044534 60 219 0.0 2.0 0.00 0.00 0.00 68 1008.9
20260903043033 60 219 0.0 1.0 0.00 0.00 0.00 66 1008.8
20260903041534 61 219 0.0 1.0 0.00 0.00 0.00 65 1008.7
20260903040036 62 219 0.0 1.0 0.00 0.00 0.00 64 1008.7
20260903034532 63 219 0.0 1.0 0.00 0.00 0.00 61 1008.6
20260903033032 64 219 0.0 1.0 0.00 0.00 0.00 60 1008.4
20260903031534 65 219 0.0 1.0 0.00 0.00 0.00 58 1008.3
20260903030031 66 219 0.0 1.0 0.00 0.00 0.00 55 1008.2
20260903024530 68 219 0.0 1.0 0.00 0.00 0.00 53 1008.1
20260903023037 70 219 0.0 1.0 0.00 0.00 0.00 50 1008.1
20260903021528 71 219 0.0 3.0 0.00 0.00 0.00 48 1008.3
20260903020026 72 219 0.0 3.0 0.00 0.00 0.00 45 1008.3
20260903014525 73 234 0.0 4.0 0.00 0.00 0.00 41 1008.3
20260903013023 74 167 1.0 4.0 0.00 0.00 0.00 40 1008.3
20260903011524 74 246 0.0 3.0 0.00 0.00 0.00 39 1008.2
20260903010021 75 84 1.0 5.0 0.00 0.00 0.00 38 1008.4
20260903004525 77 238 1.0 6.0 0.00 0.00 0.00 35 1008.5
20260903003020 77 241 1.0 5.0 0.00 0.00 0.00 35 1008.5
20260903001522 77 261 0.0 5.0 0.00 0.00 0.00 34 1008.6
20260903000035 78 248 2.0 7.0 0.00 0.00 0.00 33 1008.6
20260902234515 78 82 1.0 8.0 0.00 0.00 0.00 34 1008.7
20260902233014 78 217 1.0 6.0 0.00 0.00 0.00 33 1008.8
20260902231518 78 17 0.0 4.0 0.00 0.00 0.00 32 1008.8
20260902230010 77 150 1.0 15.0 0.00 0.00 0.00 33 1008.9
20260902224510 77 223 2.0 8.0 0.00 0.00 0.00 35 1009.2
20260902223010 76 150 1.0 6.0 0.00 0.00 0.00 35 1009.2
20260902221507 76 248 3.0 9.0 0.00 0.00 0.00 34 1009.3
20260902220008 77 260 2.0 10.0 0.00 0.00 0.00 34 1009.4
20260902214506 77 59 1.0 6.0 0.00 0.00 0.00 35 1009.6
20260902213003 76 226 1.0 8.0 0.00 0.00 0.00 35 1009.8
20260902211502 76 234 1.0 6.0 0.00 0.00 0.00 36 1009.8
20260902210059 76 229 0.0 4.0 0.00 0.00 0.00 36 1009.9
20260902204606 75 229 4.0 10.0 0.00 0.00 0.00 36 1009.9
20260902203056 75 229 2.0 8.0 0.00 0.00 0.00 37 1010.1
20260902201616 75 117 2.0 14.0 0.00 0.00 0.00 38 1010.2
20260902200054 75 132 2.0 8.0 0.00 0.00 0.00 40 1010.3
20260902194553 74 85 2.0 10.0 0.00 0.00 0.00 40 1010.3
20260902193050 74 117 1.0 8.0 0.00 0.00 0.00 41 1010.3
20260902191547 73 188 1.0 8.0 0.00 0.00 0.00 41 1010.5
20260902190046 73 208 2.0 7.0 0.00 0.00 0.00 42 1010.6
20260902184545 73 239 1.0 8.0 0.00 0.00 0.00 42 1010.7
20260902183042 71 130 1.0 7.0 0.00 0.00 0.00 45 1010.8
20260902181540 71 156 0.0 5.0 0.00 0.00 0.00 46 1010.9
20260902180036 70 138 1.0 6.0 0.00 0.00 0.00 47 1010.8
20260902174544 68 54 0.0 4.0 0.00 0.00 0.00 49 1010.7
20260902173029 68 200 0.0 3.0 0.00 0.00 0.00 50 1010.6
20260902171526 67 153 0.0 3.0 0.00 0.00 0.00 52 1010.6
20260902170031 65 207 0.0 3.0 0.00 0.00 0.00 55 1010.7